Погода в Даббо

Австралия     32°15′14″S   148°36′26″E
темп.,
°C
ветер,
м/с
пор.,
м/с
влажн.,
%
обл.,
%
осадки,
мм/ч
давл.,
гПа
погр.,
м
14 апреля, ср
ср1401:00+11св22435 0.0 101912
04:00+10св22455 0.0 101812
07:00+11св22485 0.0 101918
10:00+19ссз46315 0.0 1018643
13:00+24сз57230 0.0 10161485
16:00+24зсз46225 0.0 10151867
19:00+18сз113183 0.0 101613
22:00+17ююв22349 0.0 101719
15 апреля, чт
чт1501:00+14ю223816 0.0 101611
04:00+12ююв22436 0.0 101611
07:00+12ююв22510 0.0 101816
10:00+20ю23370 0.0 1017893
13:00+23зюз55304 0.0 10151601
16:00+22юз463084 0.0 10141858
19:00+16ююз3648100 0.0 1017107
22:00+14ююз31051100 0.0 1018273
16 апреля, пт
пт1601:00+12ю3753100 0.0 1019139
04:00+11ююв2557100 0.0 101985
07:00+11ююв266076 0.0 1021147
10:00+18ююв574283 0.0 1021948
13:00+21вюв333199 0.0 10191499
16:00+21в3428100 0.0 10171825
19:00+16вюв38574 0.0 1019204
22:00+15вюв51171100 0.0 1022776
17 апреля, сб
сб1701:00+14вюв51074100 0.0 1021490
04:00+13всв3683100 0.2 1020146
07:00+13всв1180100 0.1 102165
10:00+14в2377100 0.9 1022402
13:00+16юв4661100 0.4 1020843
16:00+17вюв235654 0.4 1020627
19:00+12всв238189 0.0 102253
22:00+14в1375100 0.0 1021105
18 апреля, вс
вс1801:00+11юз11865 0.0 102110
04:00+10ююз2278100 0.0 102020
07:00+9юв117898 0.0 102214
10:00+17ююз224981 0.0 1021725
13:00+20юз33310 0.0 10181833
16:00+20юз55265 0.0 10181660
19:00+13юз37420 0.0 1019113
22:00+12ююз23480 0.0 102032